Location: Bacea
(45.9500°N, 22.6667°E)
Time: 10:18:32
(UTC+00:00)

ATLAS 3B R/B - Pass Details

Date: 16 October 2021
Orbit: 989 x 1206 km, 63.8° (Epoch: 25 November)

Event Time Altitude Azimuth Distance (km) Brightness Sun altitude
Rises 16:36:46 0° 218° (SW) 3,700 6.2 -10.4°
Reaches altitude 10° 16:39:18 10° 219° (SW) 2,767 5.5 -10.8°
Maximum altitude 16:45:49 84° 307° (NW) 1,040 2.7 -11.9°
Drops below altitude 10° 16:52:41 10° 37° (NE) 2,906 4.6 -13.1°
Sets 16:55:24 0° 39° (NE) 3,897 5.3 -13.6°
